AirNav   Everest Fuels
 
 996 users online  

8Y4 Surfside Seaplane Base
Lino Lakes, Minnesota, USA

GOING TO LINO LAKES?


FAA INFORMATION EFFECTIVE 25 MARCH 2021

Location

FAA Identifier: 8Y4
Lat/Long: 45-08-59.8780N 093-07-00.8000W
45-08.997967N 093-07.013333W
45.1499661,-93.1168889
(estimated)
Elevation: 880 ft. / 268 m (estimated)
Variation: 03E (1985)
From city: 2 miles S of LINO LAKES, MN
Time zone: UTC -5 (UTC -6 during Standard Time)
Zip code: 55014

Seaplane Base Operations

Seaplane Base use: Open to the public
Activation date: 06/1947
Control tower: no
ARTCC: MINNEAPOLIS CENTER
FSS: PRINCETON FLIGHT SERVICE STATION
NOTAMs facility: PNM (NOTAM-D service available)
Attendance: MAY-OCT DAWN-DUSK, NOV-APR/UNATNDD/
Wind indicator: yes
Segmented circle: no

Seaplane Base Communications

CTAF: 122.9
WX AWOS-3 at ANE (4 nm W): 120.625 (763-780-9025)
WX ASOS at MIC (11 nm SW): 125.7 (763-531-2343)
WX ASOS at STP (13 nm S): 118.35 (651-312-8888)
WX AWOS-3 at 21D (14 nm SE): 120.075 (651-779-5949)
WX ASOS at MSP (17 nm S): 135.35 (612-713-4174)
WX AWOS-3 at SGS (18 nm S): 119.425 (651-457-8120)

Nearby radio navigation aids

VOR radial/distance  VOR name  Freq  Var
GEPr083/10.8GOPHER VORTAC117.3006E
MSPr016/16.0MINNEAPOLIS VOR/DME115.3002E
FCMr034/23.9FLYING CLOUD VOR/DME117.7001E
FGTr359/31.3FARMINGTON VORTAC115.7006E

 
NDB name  Hdg/Dist  Freq  Var  ID
PRINCETON137/32.436803EPNM .--. -. --
RUSH CITY190/33.428202EROS .-. --- ...

Seaplane Base Services

Fuel available: 100LL
SERVICE AFTER HOURS 651-792-4703
Parking: tiedowns
Airframe service: MAJOR
Powerplant service: MAJOR

Runway Information

Runway NE/SW

Dimensions: 6500 x 1000 ft. / 1981 x 305 m
Surface: water
RUNWAY NE  RUNWAY SW
Traffic pattern: leftleft

Runway N/S

Dimensions: 5500 x 1000 ft. / 1676 x 305 m
Surface: water
RUNWAY N  RUNWAY S
Traffic pattern: leftleft

Seaplane Base Ownership and Management from official FAA records

Ownership: Privately-owned
Owner: SURFSIDE SEAPLANE BASE INC
6980 LAKE DR
LINO LAKES, MN 55014
Phone 651-780-4179
Manager: BRUCE R. HANSON
6980 LAKE DR
LINO LAKES, MN 55014
Phone 651-780-4179

Seaplane Base Operational Statistics

Aircraft based on the field: 40
Single engine airplanes: 40
    
Aircraft operations: avg 79/week *
76% local general aviation
24% transient general aviation
* for 12-month period ending 12 October 2018

Additional Remarks

PLAN APCH OVER MARSHAN OR BALDWIN LAKES.
500' TWR 2 MI EAST RIGHT OF DEP PATH.
SOUTH DEPS MAKE LEFT TURNOUT.
FOR CD CTC MINNEAPOLIS ARTCC AT 651-463-5588.

Instrument Procedures

There are no published instrument procedures at 8Y4.

Some nearby airports with instrument procedures:

KANE - Anoka County-Blaine Airport (Janes Field) (4 nm W)
KMIC - Crystal Airport (11 nm SW)
KSTP - St Paul Downtown Airport Holman Field (13 nm S)
21D - Lake Elmo Airport (14 nm SE)
KMSP - Minneapolis-St Paul International/Wold-Chamberlain Airport (17 nm S)
KSGS - South St Paul Municipal Airport-Richard E Fleming Field (18 nm S)
 
Loc | Ops | Rwys | IFR | FBO | Links
Com | Nav | Svcs | Stats | Notes
Area around 8Y4 (Surfside Seaplane Base)
 
Road maps at: MapQuest Bing Google
 
Aerial photo
WARNING: Photo may not be current or correct
Aerial photo of 8Y4 (Surfside Seaplane Base)
Photo by R. Johnson

Do you have a better or more recent aerial photo of Surfside Seaplane Base that you would like to share? If so, please send us your photo.

 
Sectional chart

 
Airport distance calculator
Flying to Surfside Seaplane Base? Find the distance to fly.

From to 8Y4

Sunrise and sunset
Times for 15-Apr-2021
 Local
(UTC-5)
 Zulu
(UTC)
Morning civil twilight05:5810:58
Sunrise06:2811:28
Sunset19:5700:57
Evening civil twilight20:2701:27

Current date and time
Zulu (UTC)  15-Apr-2021 12:51:19
Local (UTC-5)  15-Apr-2021 07:51:19
 
METAR
KANE 
4nm W 
151157Z 34006KT 10SM SCT020 OVC041 04/03 A3018
KMIC 
11nm SW 
151200Z 31007KT 10SM BKN018 OVC042 03/01 A3018 RMK AO2 T00330006
KSTP 
13nm S 
151153Z 33009KT 10SM OVC019 04/02 A3019 RMK AO2 SLP227 70001 T00390017 10050 20039 53003
K21D 
14nm SE 
151207Z AUTO 35006KT 10SM -RA OVC014 03/02 A3019 RMK AO2
KMSP 
17nm S 
151210Z 33009G19KT 10SM BKN017 OVC022 03/01 A3019 RMK AO2 T00330011
KSGS 
18nm S 
151235Z AUTO 34005KT 10SM OVC016 04/01 A3018 RMK AO2 T00410013
TAF
KMSP 
17nm S 
151120Z 1512/1618 32008KT P6SM SCT018 OVC040 TEMPO 1512/1516 OVC015 FM151600 34008KT P6SM BKN025
NOTAMs
Click for the latest NOTAMs
NOTAMs are issued by the DoD/FAA and will open in a separate window not controlled by AirNav.

 

 
 

FBO, Fuel Providers, and Aircraft Ground Support

  
 Business Name 
 
 Contact 
 
 Services / Description 
 
Fuel Prices
 
Comments
  
Surfside Seaplane Training, LLC 651-270-7602
612-309-3189
[email]
Aviation fuel, Flight training, Aerial tours / aerial sightseeing

More info about Surfside Seaplane Training, LLC
100LL
AS $4.00 
 Updated 07-Jun-2020
 
   write
AS=Assisted/Self Service
Update Fuel Prices
 

Aviation Businesses, Services, and Facilities

  
 Business Name 
 
 Contact 
 
 Services / Description 
 
Distance
 
Comments
  
Seaplane Services, Inc 651-792-4703
toll-free 866-879-0854
[web site]
[email]
Aircraft ground handling, Hangars, Flight training, Aircraft maintenance, Avionics sales and service, Aircraft modifications, Aircraft painting, Aircraft interiors, ...

More info about Seaplane Services, Inc
on airport  
   write
 

Would you like to see your business listed on this page?

 If your business provides an interesting product or service to pilots, flight crews, aircraft, or users of the Surfside Seaplane Base, you should consider listing it here.  To start the listing process, click on the button below
 
Add a business
 

Other Pages about Surfside Seaplane Base

Update a link
 
Copyright © AirNav, LLC. All rights reserved. Privacy Policy  Contact